{"data":{"norad_id":56335,"epoch":"2026-05-25T00:11:26.919744Z","epoch_age_seconds":88559,"freshness":"FRESH","line1":"1 56335U 23058U   26145.00795046 -.00001134  00000+0 -74515-4 0  9995","line2":"2 56335  97.4476 146.1257 0002580 110.7801 249.3703 15.05654981169682","mean_motion":15.05654981,"eccentricity":0.000258,"inclination_deg":97.4476,"raan_deg":146.1257,"arg_perigee_deg":110.7801,"mean_anomaly_deg":249.3703,"bstar":-7.4515e-5,"rev_number":16968,"period_min":95.63944052067,"perigee_km":547.70854607571,"apogee_km":551.2832046394,"semimajor_km":6927.6328753576,"source":"CELESTRAK","updated_at":"2026-05-25T13:38:18.003308Z"}}